Year,Month,Day,Hour,Minute,Value (Times are PST for temperature in C)
2016,09,17,00,00,13.10
2016,09,17,00,01,13.10
2016,09,17,00,02,13.10
2016,09,17,00,03,13.10
2016,09,17,00,04,13.10
2016,09,17,00,05,13.10
2016,09,17,00,06,13.10
2016,09,17,00,07,13.10
2016,09,17,00,08,13.10
2016,09,17,00,09,13.10
2016,09,17,00,10,13.10
2016,09,17,00,11,13.10
2016,09,17,00,12,13.10
2016,09,17,00,13,13.10
2016,09,17,00,14,13.10
2016,09,17,00,15,13.10
2016,09,17,00,16,13.10
2016,09,17,00,17,13.10
2016,09,17,00,18,13.10
2016,09,17,00,19,13.10
2016,09,17,00,20,13.10
2016,09,17,00,21,13.10
2016,09,17,00,22,13.10
2016,09,17,00,23,13.10
2016,09,17,00,24,13.10
2016,09,17,00,25,13.10
2016,09,17,00,26,13.10
2016,09,17,00,27,13.10
2016,09,17,00,28,13.10
2016,09,17,00,29,13.10
2016,09,17,00,30,13.10
2016,09,17,00,31,13.10
2016,09,17,00,32,13.10
2016,09,17,00,33,13.10
2016,09,17,00,34,13.10
2016,09,17,00,35,13.10
2016,09,17,00,36,13.10
2016,09,17,00,37,13.10
2016,09,17,00,38,13.10
2016,09,17,00,39,13.10
2016,09,17,00,40,13.10
2016,09,17,00,41,13.10
2016,09,17,00,42,13.10
2016,09,17,00,43,13.10
2016,09,17,00,44,13.10
2016,09,17,00,45,13.10
2016,09,17,00,46,13.10
2016,09,17,00,47,13.10
2016,09,17,00,48,13.10
2016,09,17,00,49,13.10
2016,09,17,00,50,13.10
2016,09,17,00,51,13.10
2016,09,17,00,52,13.10
2016,09,17,00,53,13.10
2016,09,17,00,54,13.10
2016,09,17,00,55,13.10
2016,09,17,00,56,13.10
2016,09,17,00,57,13.10
2016,09,17,00,58,13.10
2016,09,17,00,59,13.10
2016,09,17,01,00,13.10
2016,09,17,01,01,13.10
2016,09,17,01,02,13.10
2016,09,17,01,03,13.10
2016,09,17,01,04,13.10
2016,09,17,01,05,13.10
2016,09,17,01,06,13.10
2016,09,17,01,07,13.10
2016,09,17,01,08,13.10
2016,09,17,01,09,13.10
2016,09,17,01,10,13.10
2016,09,17,01,11,13.10
2016,09,17,01,12,13.10
2016,09,17,01,13,13.10
2016,09,17,01,14,13.10
2016,09,17,01,15,13.10
2016,09,17,01,16,13.10
2016,09,17,01,17,13.10
2016,09,17,01,18,13.10
2016,09,17,01,19,13.10
2016,09,17,01,20,13.10
2016,09,17,01,21,13.10
2016,09,17,01,22,13.10
2016,09,17,01,23,13.10
2016,09,17,01,24,13.10
2016,09,17,01,25,13.10
2016,09,17,01,26,13.10
2016,09,17,01,27,13.10
2016,09,17,01,28,13.10
2016,09,17,01,29,13.10
2016,09,17,01,30,13.10
2016,09,17,01,31,13.10
2016,09,17,01,32,13.10
2016,09,17,01,33,13.10
2016,09,17,01,34,13.10
2016,09,17,01,35,13.10
2016,09,17,01,36,13.10
2016,09,17,01,37,13.10
2016,09,17,01,38,13.10
2016,09,17,01,39,13.10
2016,09,17,01,40,13.10
2016,09,17,01,41,13.10
2016,09,17,01,42,13.10
2016,09,17,01,43,13.10
2016,09,17,01,44,13.10
2016,09,17,01,45,13.10
2016,09,17,01,46,13.10
2016,09,17,01,47,13.10
2016,09,17,01,48,13.10
2016,09,17,01,49,13.10
2016,09,17,01,50,13.10
2016,09,17,01,51,13.10
2016,09,17,01,52,13.10
2016,09,17,01,53,13.10
2016,09,17,01,54,13.10
2016,09,17,01,55,13.10
2016,09,17,01,56,13.10
2016,09,17,01,57,13.10
2016,09,17,01,58,13.10
2016,09,17,01,59,13.10
2016,09,17,02,00,13.10
2016,09,17,02,01,13.10
2016,09,17,02,02,13.10
2016,09,17,02,03,13.10
2016,09,17,02,04,13.10
2016,09,17,02,05,13.10
2016,09,17,02,06,13.10
2016,09,17,02,07,13.10
2016,09,17,02,08,13.10
2016,09,17,02,09,13.10
2016,09,17,02,10,13.10
2016,09,17,02,11,13.10
2016,09,17,02,12,13.10
2016,09,17,02,13,13.10
2016,09,17,02,14,13.10
2016,09,17,02,15,13.10
2016,09,17,02,16,13.10
2016,09,17,02,17,13.10
2016,09,17,02,18,13.10
2016,09,17,02,19,13.10
2016,09,17,02,20,13.10
2016,09,17,02,21,13.10
2016,09,17,02,22,13.10
2016,09,17,02,23,13.10
2016,09,17,02,24,13.10
2016,09,17,02,25,13.10
2016,09,17,02,26,13.10
2016,09,17,02,27,13.10
2016,09,17,02,28,13.10
2016,09,17,02,29,13.10
2016,09,17,02,30,13.10
2016,09,17,02,31,13.10
2016,09,17,02,32,13.10
2016,09,17,02,33,13.10
2016,09,17,02,34,13.10
2016,09,17,02,35,13.10
2016,09,17,02,36,13.10
2016,09,17,02,37,13.10
2016,09,17,02,38,13.10
2016,09,17,02,39,13.10
2016,09,17,02,40,13.10
2016,09,17,02,41,13.10
2016,09,17,02,42,13.10
2016,09,17,02,43,13.10
2016,09,17,02,44,13.10
2016,09,17,02,45,13.10
2016,09,17,02,46,13.10
2016,09,17,02,47,13.10
2016,09,17,02,48,13.10
2016,09,17,02,49,13.10
2016,09,17,02,50,13.10
2016,09,17,02,51,13.10
2016,09,17,02,52,13.10
2016,09,17,02,53,13.10
2016,09,17,02,54,13.10
2016,09,17,02,55,13.10
2016,09,17,02,56,13.10
2016,09,17,02,57,13.10
2016,09,17,02,58,13.10
2016,09,17,02,59,13.10
2016,09,17,03,00,13.10
2016,09,17,03,01,13.10
2016,09,17,03,02,13.10
2016,09,17,03,03,13.10
2016,09,17,03,04,13.10
2016,09,17,03,05,13.10
2016,09,17,03,06,13.10
2016,09,17,03,07,13.10
2016,09,17,03,08,13.10
2016,09,17,03,09,13.10
2016,09,17,03,10,13.10
2016,09,17,03,11,13.10
2016,09,17,03,12,13.10
2016,09,17,03,13,13.10
2016,09,17,03,14,13.10
2016,09,17,03,15,13.10
2016,09,17,03,16,13.10
2016,09,17,03,17,13.10
2016,09,17,03,18,13.10
2016,09,17,03,19,13.10
2016,09,17,03,20,13.10
2016,09,17,03,21,13.10
2016,09,17,03,22,13.10
2016,09,17,03,23,13.10
2016,09,17,03,24,13.10
2016,09,17,03,25,13.10
2016,09,17,03,26,13.10
2016,09,17,03,27,13.10
2016,09,17,03,28,13.10
2016,09,17,03,29,13.10
2016,09,17,03,30,13.10
2016,09,17,03,31,13.10
2016,09,17,03,32,13.10
2016,09,17,03,33,13.10
2016,09,17,03,34,13.10
2016,09,17,03,35,13.10
2016,09,17,03,36,13.10
2016,09,17,03,37,13.10
2016,09,17,03,38,13.10
2016,09,17,03,39,13.10
2016,09,17,03,40,13.10
2016,09,17,03,41,13.10
2016,09,17,03,42,13.10
2016,09,17,03,43,13.10
2016,09,17,03,44,13.10
2016,09,17,03,45,13.10
2016,09,17,03,46,13.10
2016,09,17,03,47,13.10
2016,09,17,03,48,13.10
2016,09,17,03,49,13.10
2016,09,17,03,50,13.10
2016,09,17,03,51,13.10
2016,09,17,03,52,13.10
2016,09,17,03,53,13.10
2016,09,17,03,54,13.10
2016,09,17,03,55,13.10
2016,09,17,03,56,13.10
2016,09,17,03,57,13.10
2016,09,17,03,58,13.10
2016,09,17,03,59,13.10
2016,09,17,04,00,13.10
2016,09,17,04,01,13.10
2016,09,17,04,02,13.10
2016,09,17,04,03,13.10
2016,09,17,04,04,13.20
2016,09,17,04,05,13.20
2016,09,17,04,06,13.20
2016,09,17,04,07,13.10
2016,09,17,04,08,13.10
2016,09,17,04,09,13.10
2016,09,17,04,10,13.20
2016,09,17,04,11,13.20
2016,09,17,04,12,13.20
2016,09,17,04,13,13.10
2016,09,17,04,14,13.10
2016,09,17,04,15,13.10
2016,09,17,04,16,13.10
2016,09,17,04,17,13.10
2016,09,17,04,18,13.10
2016,09,17,04,19,13.10
2016,09,17,04,20,13.10
2016,09,17,04,21,13.20
2016,09,17,04,22,13.20
2016,09,17,04,23,13.20
2016,09,17,04,24,13.20
2016,09,17,04,25,13.20
2016,09,17,04,26,13.10
2016,09,17,04,27,13.10
2016,09,17,04,28,13.10
2016,09,17,04,29,13.10
2016,09,17,04,30,13.10
2016,09,17,04,31,13.10
2016,09,17,04,32,13.10
2016,09,17,04,33,13.10
2016,09,17,04,34,13.10
2016,09,17,04,35,13.10
2016,09,17,04,36,13.10
2016,09,17,04,37,13.10
2016,09,17,04,38,13.10
2016,09,17,04,39,13.10
2016,09,17,04,40,13.10
2016,09,17,04,41,13.10
2016,09,17,04,42,13.10
2016,09,17,04,43,13.10
2016,09,17,04,44,13.10
2016,09,17,04,45,13.10
2016,09,17,04,46,13.10
2016,09,17,04,47,13.10
2016,09,17,04,48,13.10
2016,09,17,04,49,13.10
2016,09,17,04,50,13.10
2016,09,17,04,51,13.10
2016,09,17,04,52,13.10
2016,09,17,04,53,13.10
2016,09,17,04,54,13.10
2016,09,17,04,55,13.10
2016,09,17,04,56,13.10
2016,09,17,04,57,13.10
2016,09,17,04,58,13.10
2016,09,17,04,59,13.10
2016,09,17,05,00,13.10
2016,09,17,05,01,13.10
2016,09,17,05,02,13.10
2016,09,17,05,03,13.10
2016,09,17,05,04,13.10
2016,09,17,05,05,13.10
2016,09,17,05,06,13.10
2016,09,17,05,07,13.10
2016,09,17,05,08,13.10
2016,09,17,05,09,13.10
2016,09,17,05,10,13.10
2016,09,17,05,11,13.10
2016,09,17,05,12,13.10
2016,09,17,05,13,13.10
2016,09,17,05,14,13.10
2016,09,17,05,15,13.10
2016,09,17,05,16,13.10
2016,09,17,05,17,13.10
2016,09,17,05,18,13.10
2016,09,17,05,19,13.10
2016,09,17,05,20,13.10
2016,09,17,05,21,13.20
2016,09,17,05,22,13.20
2016,09,17,05,23,13.10
2016,09,17,05,24,13.20
2016,09,17,05,25,13.20
2016,09,17,05,26,13.20
2016,09,17,05,27,13.20
2016,09,17,05,28,13.20
2016,09,17,05,29,13.20
2016,09,17,05,30,13.20
2016,09,17,05,31,13.20
2016,09,17,05,32,13.20
2016,09,17,05,33,13.20
2016,09,17,05,34,13.20
2016,09,17,05,35,13.20
2016,09,17,05,36,13.20
2016,09,17,05,37,13.20
2016,09,17,05,38,13.20
2016,09,17,05,39,13.20
2016,09,17,05,40,13.20
2016,09,17,05,41,13.20
2016,09,17,05,42,13.20
2016,09,17,05,43,13.20
2016,09,17,05,44,13.20
2016,09,17,05,45,13.20
2016,09,17,05,46,13.20
2016,09,17,05,47,13.20
2016,09,17,05,48,13.20
2016,09,17,05,49,13.20
2016,09,17,05,50,13.20
2016,09,17,05,51,13.20
2016,09,17,05,52,13.20
2016,09,17,05,53,13.20
2016,09,17,05,54,13.20
2016,09,17,05,55,13.20
2016,09,17,05,56,13.20
2016,09,17,05,57,13.20
2016,09,17,05,58,13.20
2016,09,17,05,59,13.20
2016,09,17,06,00,13.20
2016,09,17,06,01,13.20
2016,09,17,06,02,13.20
2016,09,17,06,03,13.20
2016,09,17,06,04,13.20
2016,09,17,06,05,13.20
2016,09,17,06,06,13.20
2016,09,17,06,07,13.20
2016,09,17,06,08,13.20
2016,09,17,06,09,13.20
2016,09,17,06,10,13.20
2016,09,17,06,11,13.20
2016,09,17,06,12,13.20
2016,09,17,06,13,13.20
2016,09,17,06,14,13.20
2016,09,17,06,15,13.20
2016,09,17,06,16,13.20
2016,09,17,06,17,13.20
2016,09,17,06,18,13.20
2016,09,17,06,19,13.20
2016,09,17,06,20,13.30
2016,09,17,06,21,13.30
2016,09,17,06,22,13.30
2016,09,17,06,23,13.30
2016,09,17,06,24,13.30
2016,09,17,06,25,13.30
2016,09,17,06,26,13.30
2016,09,17,06,27,13.30
2016,09,17,06,28,13.30
2016,09,17,06,29,13.30
2016,09,17,06,30,13.30
2016,09,17,06,31,13.30
2016,09,17,06,32,13.30
2016,09,17,06,33,13.30
2016,09,17,06,34,13.30
2016,09,17,06,35,13.30
2016,09,17,06,36,13.30
2016,09,17,06,37,13.30
2016,09,17,06,38,13.30
2016,09,17,06,39,13.30
2016,09,17,06,40,13.30
2016,09,17,06,41,13.30
2016,09,17,06,42,13.30
2016,09,17,06,43,13.30
2016,09,17,06,44,13.30
2016,09,17,06,45,13.30
2016,09,17,06,46,13.30
2016,09,17,06,47,13.30
2016,09,17,06,48,13.30
2016,09,17,06,49,13.30
2016,09,17,06,50,13.30
2016,09,17,06,51,13.30
2016,09,17,06,52,13.30
2016,09,17,06,53,13.30
2016,09,17,06,54,13.30
2016,09,17,06,55,13.30
2016,09,17,06,56,13.30
2016,09,17,06,57,13.30
2016,09,17,06,58,13.30
2016,09,17,06,59,13.30
2016,09,17,07,00,13.30
2016,09,17,07,01,13.30
2016,09,17,07,02,13.30
2016,09,17,07,03,13.30
2016,09,17,07,04,13.30
2016,09,17,07,05,13.40
2016,09,17,07,06,13.40
2016,09,17,07,07,13.40
2016,09,17,07,08,13.40
2016,09,17,07,09,13.40
2016,09,17,07,10,13.40
2016,09,17,07,11,13.40
2016,09,17,07,12,13.40
2016,09,17,07,13,13.40
2016,09,17,07,14,13.40
2016,09,17,07,15,13.40
2016,09,17,07,16,13.40
2016,09,17,07,17,13.40
2016,09,17,07,18,13.30
2016,09,17,07,19,13.30
2016,09,17,07,20,13.30
2016,09,17,07,21,13.30
2016,09,17,07,22,13.30
2016,09,17,07,23,13.30
2016,09,17,07,24,13.30
2016,09,17,07,25,13.40
2016,09,17,07,26,13.30
2016,09,17,07,27,13.30
2016,09,17,07,28,13.40
2016,09,17,07,29,13.30
2016,09,17,07,30,13.40
2016,09,17,07,31,13.30
2016,09,17,07,32,13.40
2016,09,17,07,33,13.30
2016,09,17,07,34,13.30
2016,09,17,07,35,13.40
2016,09,17,07,36,13.30
2016,09,17,07,37,13.30
2016,09,17,07,38,13.30
2016,09,17,07,39,13.30
2016,09,17,07,40,13.30
2016,09,17,07,41,13.30
2016,09,17,07,42,13.30
2016,09,17,07,43,13.30
2016,09,17,07,44,13.30
2016,09,17,07,45,13.40
2016,09,17,07,46,13.40
2016,09,17,07,47,13.40
2016,09,17,07,48,13.40
2016,09,17,07,49,13.40
2016,09,17,07,50,13.40
2016,09,17,07,51,13.40
2016,09,17,07,52,13.40
2016,09,17,07,53,13.40
2016,09,17,07,54,13.40
2016,09,17,07,55,13.40
2016,09,17,07,56,13.40
2016,09,17,07,57,13.40
2016,09,17,07,58,13.40
2016,09,17,07,59,13.40
2016,09,17,08,00,13.40
2016,09,17,08,01,13.40
2016,09,17,08,02,13.40
2016,09,17,08,03,13.40
2016,09,17,08,04,13.40
2016,09,17,08,05,13.40
2016,09,17,08,06,13.40
2016,09,17,08,07,13.40
2016,09,17,08,08,13.40
2016,09,17,08,09,13.40
2016,09,17,08,10,13.40
2016,09,17,08,11,13.40
2016,09,17,08,12,13.40
2016,09,17,08,13,13.40
2016,09,17,08,14,13.40
2016,09,17,08,15,13.40
2016,09,17,08,16,13.40
2016,09,17,08,17,13.40
2016,09,17,08,18,13.40
2016,09,17,08,19,13.40
2016,09,17,08,20,13.40
2016,09,17,08,21,13.40
2016,09,17,08,22,13.40
2016,09,17,08,23,13.40
2016,09,17,08,24,13.40
2016,09,17,08,25,13.50
2016,09,17,08,26,13.50
2016,09,17,08,27,13.50
2016,09,17,08,28,13.50
2016,09,17,08,29,13.50
2016,09,17,08,30,13.50
2016,09,17,08,31,13.50
2016,09,17,08,32,13.50
2016,09,17,08,33,13.60
2016,09,17,08,34,13.50
2016,09,17,08,35,13.60
2016,09,17,08,36,13.60
2016,09,17,08,37,13.60
2016,09,17,08,38,13.60
2016,09,17,08,39,13.60
2016,09,17,08,40,13.60
2016,09,17,08,41,13.60
2016,09,17,08,42,13.60
2016,09,17,08,43,13.60
2016,09,17,08,44,13.60
2016,09,17,08,45,13.60
2016,09,17,08,46,13.60
2016,09,17,08,47,13.60
2016,09,17,08,48,13.60
2016,09,17,08,49,13.70
2016,09,17,08,50,13.70
2016,09,17,08,51,13.70
2016,09,17,08,52,13.70
2016,09,17,08,53,13.70
2016,09,17,08,54,13.70
2016,09,17,08,55,13.70
2016,09,17,08,56,13.70
2016,09,17,08,57,13.70
2016,09,17,08,58,13.80
2016,09,17,08,59,13.80
2016,09,17,09,00,13.80
2016,09,17,09,01,13.80
2016,09,17,09,02,13.80
2016,09,17,09,03,13.80
2016,09,17,09,04,13.80
2016,09,17,09,05,13.80
2016,09,17,09,06,13.80
2016,09,17,09,07,13.80
2016,09,17,09,08,13.80
2016,09,17,09,09,13.90
2016,09,17,09,10,13.90
2016,09,17,09,11,13.90
2016,09,17,09,12,13.90
2016,09,17,09,13,13.90
2016,09,17,09,14,13.90
2016,09,17,09,15,13.90
2016,09,17,09,16,13.90
2016,09,17,09,17,13.90
2016,09,17,09,18,13.90
2016,09,17,09,19,13.90
2016,09,17,09,20,13.90
2016,09,17,09,21,13.90
2016,09,17,09,22,13.90
2016,09,17,09,23,13.90
2016,09,17,09,24,13.90
2016,09,17,09,25,13.80
2016,09,17,09,26,13.80
2016,09,17,09,27,13.80
2016,09,17,09,28,13.90
2016,09,17,09,29,13.80
2016,09,17,09,30,13.80
2016,09,17,09,31,13.80
2016,09,17,09,32,13.80
2016,09,17,09,33,13.80
2016,09,17,09,34,13.80
2016,09,17,09,35,13.80
2016,09,17,09,36,13.80
2016,09,17,09,37,13.80
2016,09,17,09,38,13.80
2016,09,17,09,39,13.80
2016,09,17,09,40,13.80
2016,09,17,09,41,13.80
2016,09,17,09,42,13.80
2016,09,17,09,43,13.80
2016,09,17,09,44,13.80
2016,09,17,09,45,13.90
2016,09,17,09,46,13.90
2016,09,17,09,47,13.90
2016,09,17,09,48,13.90
2016,09,17,09,49,13.90
2016,09,17,09,50,13.90
2016,09,17,09,51,13.90
2016,09,17,09,52,13.90
2016,09,17,09,53,14.00
2016,09,17,09,54,14.00
2016,09,17,09,55,14.00
2016,09,17,09,56,14.00
2016,09,17,09,57,14.10
2016,09,17,09,58,14.10
2016,09,17,09,59,14.10
2016,09,17,10,00,14.10
2016,09,17,10,01,14.10
2016,09,17,10,02,14.10
2016,09,17,10,03,14.10
2016,09,17,10,04,14.10
2016,09,17,10,05,14.10
2016,09,17,10,06,14.10
2016,09,17,10,07,14.10
2016,09,17,10,08,14.20
2016,09,17,10,09,14.10
2016,09,17,10,10,14.10
2016,09,17,10,11,14.10
2016,09,17,10,12,14.10
2016,09,17,10,13,14.10
2016,09,17,10,14,14.10
2016,09,17,10,15,14.10
2016,09,17,10,16,14.10
2016,09,17,10,17,14.10
2016,09,17,10,18,14.00
2016,09,17,10,19,14.00
2016,09,17,10,20,13.90
2016,09,17,10,21,13.90
2016,09,17,10,22,13.90
2016,09,17,10,23,13.90
2016,09,17,10,24,13.90
2016,09,17,10,25,13.90
2016,09,17,10,26,13.90
2016,09,17,10,27,13.90
2016,09,17,10,28,13.90
2016,09,17,10,29,13.90
2016,09,17,10,30,13.90
2016,09,17,10,31,13.90
2016,09,17,10,32,13.90
2016,09,17,10,33,13.90
2016,09,17,10,34,13.90
2016,09,17,10,35,13.90
2016,09,17,10,36,13.90
2016,09,17,10,37,13.90
2016,09,17,10,38,14.00
2016,09,17,10,39,14.00
2016,09,17,10,40,14.00
2016,09,17,10,41,14.00
2016,09,17,10,42,14.00
2016,09,17,10,43,14.00
2016,09,17,10,44,14.10
2016,09,17,10,45,14.10
2016,09,17,10,46,14.10
2016,09,17,10,47,14.10
2016,09,17,10,48,14.10
2016,09,17,10,49,14.10
2016,09,17,10,50,14.20
2016,09,17,10,51,14.20
2016,09,17,10,52,14.30
2016,09,17,10,53,14.30
2016,09,17,10,54,14.40
2016,09,17,10,55,14.40
2016,09,17,10,56,14.40
2016,09,17,10,57,14.40
2016,09,17,10,58,14.50
2016,09,17,10,59,14.50
2016,09,17,11,00,14.50
2016,09,17,11,01,14.60
2016,09,17,11,02,14.60
2016,09,17,11,03,14.60
2016,09,17,11,04,14.70
2016,09,17,11,05,14.70
2016,09,17,11,06,14.70
2016,09,17,11,07,14.80
2016,09,17,11,08,14.80
2016,09,17,11,09,14.80
2016,09,17,11,10,14.80
2016,09,17,11,11,14.80
2016,09,17,11,12,14.80
2016,09,17,11,13,14.80
2016,09,17,11,14,14.90
2016,09,17,11,15,14.90
2016,09,17,11,16,14.80
2016,09,17,11,17,14.80
2016,09,17,11,18,14.80
2016,09,17,11,19,14.80
2016,09,17,11,20,14.80
2016,09,17,11,21,14.80
2016,09,17,11,22,14.80
2016,09,17,11,23,14.80
2016,09,17,11,24,14.80
2016,09,17,11,25,14.70
2016,09,17,11,26,14.70
2016,09,17,11,27,14.70
2016,09,17,11,28,14.80
2016,09,17,11,29,14.80
2016,09,17,11,30,14.80
2016,09,17,11,31,14.80
2016,09,17,11,32,14.80
2016,09,17,11,33,14.80
2016,09,17,11,34,14.80
2016,09,17,11,35,14.80
2016,09,17,11,36,14.80
2016,09,17,11,37,14.80
2016,09,17,11,38,14.80
2016,09,17,11,39,14.80
2016,09,17,11,40,14.80
2016,09,17,11,41,14.80
2016,09,17,11,42,14.80
2016,09,17,11,43,14.80
2016,09,17,11,44,14.80
2016,09,17,11,45,14.80
2016,09,17,11,46,14.90
2016,09,17,11,47,14.90
2016,09,17,11,48,14.90
2016,09,17,11,49,14.90
2016,09,17,11,50,15.00
2016,09,17,11,51,15.00
2016,09,17,11,52,15.00
2016,09,17,11,53,15.10
2016,09,17,11,54,15.10
2016,09,17,11,55,15.10
2016,09,17,11,56,15.20
2016,09,17,11,57,15.20
2016,09,17,11,58,15.20
2016,09,17,11,59,15.20
2016,09,17,12,00,15.30
2016,09,17,12,01,15.30
2016,09,17,12,02,15.30
2016,09,17,12,03,15.30
2016,09,17,12,04,15.30
2016,09,17,12,05,15.30
2016,09,17,12,06,15.30
2016,09,17,12,07,15.30
2016,09,17,12,08,15.20
2016,09,17,12,09,15.20
2016,09,17,12,10,15.20
2016,09,17,12,11,15.20
2016,09,17,12,12,15.20
2016,09,17,12,13,15.30
2016,09,17,12,14,15.30
2016,09,17,12,15,15.20
2016,09,17,12,16,15.20
2016,09,17,12,17,15.20
2016,09,17,12,18,15.30
2016,09,17,12,19,15.30
2016,09,17,12,20,15.30
2016,09,17,12,21,15.40
2016,09,17,12,22,15.40
2016,09,17,12,23,15.40
2016,09,17,12,24,15.40
2016,09,17,12,25,15.40
2016,09,17,12,26,15.40
2016,09,17,12,27,15.30
2016,09,17,12,28,15.30
2016,09,17,12,29,15.30
2016,09,17,12,30,15.30
2016,09,17,12,31,15.30
2016,09,17,12,32,15.30
2016,09,17,12,33,15.30
2016,09,17,12,34,15.30
2016,09,17,12,35,15.30
2016,09,17,12,36,15.30
2016,09,17,12,37,15.30
2016,09,17,12,38,15.30
2016,09,17,12,39,15.30
2016,09,17,12,40,15.30
2016,09,17,12,41,15.30
2016,09,17,12,42,15.30
2016,09,17,12,43,15.30
2016,09,17,12,44,15.30
2016,09,17,12,45,15.30
2016,09,17,12,46,15.30
2016,09,17,12,47,15.30
2016,09,17,12,48,15.30
2016,09,17,12,49,15.40
2016,09,17,12,50,15.40
2016,09,17,12,51,15.40
2016,09,17,12,52,15.40
2016,09,17,12,53,15.40
2016,09,17,12,54,15.40
2016,09,17,12,55,15.40
2016,09,17,12,56,15.40
2016,09,17,12,57,15.30
2016,09,17,12,58,15.30
2016,09,17,12,59,15.20
2016,09,17,13,00,15.20
2016,09,17,13,01,15.20
2016,09,17,13,02,15.10
2016,09,17,13,03,15.10
2016,09,17,13,04,15.10
2016,09,17,13,05,15.10
2016,09,17,13,06,15.00
2016,09,17,13,07,15.00
2016,09,17,13,08,15.00
2016,09,17,13,09,14.90
2016,09,17,13,10,14.90
2016,09,17,13,11,14.90
2016,09,17,13,12,14.90
2016,09,17,13,13,14.90
2016,09,17,13,14,14.90
2016,09,17,13,15,14.90
2016,09,17,13,16,14.80
2016,09,17,13,17,14.80
2016,09,17,13,18,14.80
2016,09,17,13,19,14.70
2016,09,17,13,20,14.70
2016,09,17,13,21,14.80
2016,09,17,13,22,14.80
2016,09,17,13,23,14.80
2016,09,17,13,24,14.80
2016,09,17,13,25,14.80
2016,09,17,13,26,14.90
2016,09,17,13,27,14.90
2016,09,17,13,28,15.00
2016,09,17,13,29,15.00
2016,09,17,13,30,15.10
2016,09,17,13,31,15.20
2016,09,17,13,32,15.30
2016,09,17,13,33,15.30
2016,09,17,13,34,15.30
2016,09,17,13,35,15.40
2016,09,17,13,36,15.40
2016,09,17,13,37,15.40
2016,09,17,13,38,15.40
2016,09,17,13,39,15.40
2016,09,17,13,40,15.40
2016,09,17,13,41,15.40
2016,09,17,13,42,15.40
2016,09,17,13,43,15.30
2016,09,17,13,44,15.30
2016,09,17,13,45,15.20
2016,09,17,13,46,15.20
2016,09,17,13,47,15.10
2016,09,17,13,48,15.00
2016,09,17,13,49,15.00
2016,09,17,13,50,14.90
2016,09,17,13,51,14.90
2016,09,17,13,52,14.90
2016,09,17,13,53,14.80
2016,09,17,13,54,14.80
2016,09,17,13,55,14.80
2016,09,17,13,56,14.70
2016,09,17,13,57,14.70
2016,09,17,13,58,14.70
2016,09,17,13,59,14.70
2016,09,17,14,00,14.70
2016,09,17,14,01,14.70
2016,09,17,14,02,14.70
2016,09,17,14,03,14.70
2016,09,17,14,04,14.70
2016,09,17,14,05,14.70
2016,09,17,14,06,14.70
2016,09,17,14,07,14.60
2016,09,17,14,08,14.60
2016,09,17,14,09,14.60
2016,09,17,14,10,14.60
2016,09,17,14,11,14.70
2016,09,17,14,12,14.70
2016,09,17,14,13,14.70
2016,09,17,14,14,14.80
2016,09,17,14,15,14.80
2016,09,17,14,16,14.80
2016,09,17,14,17,14.80
2016,09,17,14,18,14.90
2016,09,17,14,19,14.90
2016,09,17,14,20,15.00
2016,09,17,14,21,15.10
2016,09,17,14,22,15.10
2016,09,17,14,23,15.10
2016,09,17,14,24,15.10
2016,09,17,14,25,15.10
2016,09,17,14,26,15.20
2016,09,17,14,27,15.20
2016,09,17,14,28,15.20
2016,09,17,14,29,15.20
2016,09,17,14,30,15.20
2016,09,17,14,31,15.20
2016,09,17,14,32,15.20
2016,09,17,14,33,15.20
2016,09,17,14,34,15.20
2016,09,17,14,35,15.20
2016,09,17,14,36,15.20
2016,09,17,14,37,15.20
2016,09,17,14,38,15.20
2016,09,17,14,39,15.20
2016,09,17,14,40,15.20
2016,09,17,14,41,15.20
2016,09,17,14,42,15.20
2016,09,17,14,43,15.20
2016,09,17,14,44,15.20
2016,09,17,14,45,15.20
2016,09,17,14,46,15.20
2016,09,17,14,47,15.30
2016,09,17,14,48,15.30
2016,09,17,14,49,15.30
2016,09,17,14,50,15.30
2016,09,17,14,51,15.30
2016,09,17,14,52,15.20
2016,09,17,14,53,15.20
2016,09,17,14,54,15.20
2016,09,17,14,55,15.10
2016,09,17,14,56,15.20
2016,09,17,14,57,15.20
2016,09,17,14,58,15.30
2016,09,17,14,59,15.30
2016,09,17,15,00,15.30
2016,09,17,15,01,15.30
2016,09,17,15,02,15.30
2016,09,17,15,03,15.30
2016,09,17,15,04,15.30
2016,09,17,15,05,15.30
2016,09,17,15,06,15.20
2016,09,17,15,07,15.20
2016,09,17,15,08,15.20
2016,09,17,15,09,15.20
2016,09,17,15,10,15.10
2016,09,17,15,11,15.10
2016,09,17,15,12,15.10
2016,09,17,15,13,15.20
2016,09,17,15,14,15.20
2016,09,17,15,15,15.20
2016,09,17,15,16,15.30
2016,09,17,15,17,15.30
2016,09,17,15,18,15.30
2016,09,17,15,19,15.40
2016,09,17,15,20,15.40
2016,09,17,15,21,15.40
2016,09,17,15,22,15.40
2016,09,17,15,23,15.40
2016,09,17,15,24,15.50
2016,09,17,15,25,15.60
2016,09,17,15,26,15.70
2016,09,17,15,27,15.80
2016,09,17,15,28,15.90
2016,09,17,15,29,15.90
2016,09,17,15,30,16.00
2016,09,17,15,31,16.00
2016,09,17,15,32,16.00
2016,09,17,15,33,15.90
2016,09,17,15,34,15.90
2016,09,17,15,35,15.90
2016,09,17,15,36,15.90
2016,09,17,15,37,16.00
2016,09,17,15,38,16.00
2016,09,17,15,39,15.90
2016,09,17,15,40,15.90
2016,09,17,15,41,15.90
2016,09,17,15,42,15.80
2016,09,17,15,43,15.80
2016,09,17,15,44,15.80
2016,09,17,15,45,15.80
2016,09,17,15,46,15.70
2016,09,17,15,47,15.60
2016,09,17,15,48,15.60
2016,09,17,15,49,15.50
2016,09,17,15,50,15.50
2016,09,17,15,51,15.40
2016,09,17,15,52,15.40
2016,09,17,15,53,15.30
2016,09,17,15,54,15.30
2016,09,17,15,55,15.30
2016,09,17,15,56,15.20
2016,09,17,15,57,15.20
2016,09,17,15,58,15.20
2016,09,17,15,59,15.20
2016,09,17,16,00,15.20
2016,09,17,16,01,15.20
2016,09,17,16,02,15.20
2016,09,17,16,03,15.20
2016,09,17,16,04,15.10
2016,09,17,16,05,15.10
2016,09,17,16,06,15.10
2016,09,17,16,07,15.00
2016,09,17,16,08,15.00
2016,09,17,16,09,14.90
2016,09,17,16,10,14.90
2016,09,17,16,11,14.80
2016,09,17,16,12,14.80
2016,09,17,16,13,14.80
2016,09,17,16,14,14.80
2016,09,17,16,15,14.80
2016,09,17,16,16,14.80
2016,09,17,16,17,14.80
2016,09,17,16,18,14.80
2016,09,17,16,19,14.70
2016,09,17,16,20,14.70
2016,09,17,16,21,14.70
2016,09,17,16,22,14.70
2016,09,17,16,23,14.70
2016,09,17,16,24,14.60
2016,09,17,16,25,14.60
2016,09,17,16,26,14.60
2016,09,17,16,27,14.60
2016,09,17,16,28,14.60
2016,09,17,16,29,14.60
2016,09,17,16,30,14.60
2016,09,17,16,31,14.60
2016,09,17,16,32,14.60
2016,09,17,16,33,14.60
2016,09,17,16,34,14.70
2016,09,17,16,35,14.70
2016,09,17,16,36,14.60
2016,09,17,16,37,14.60
2016,09,17,16,38,14.60
2016,09,17,16,39,14.60
2016,09,17,16,40,14.60
2016,09,17,16,41,14.60
2016,09,17,16,42,14.60
2016,09,17,16,43,14.60
2016,09,17,16,44,14.60
2016,09,17,16,45,14.60
2016,09,17,16,46,14.60
2016,09,17,16,47,14.60
2016,09,17,16,48,14.60
2016,09,17,16,49,14.70
2016,09,17,16,50,14.70
2016,09,17,16,51,14.70
2016,09,17,16,52,14.70
2016,09,17,16,53,14.70
2016,09,17,16,54,14.70
2016,09,17,16,55,14.70
2016,09,17,16,56,14.80
2016,09,17,16,57,14.80
2016,09,17,16,58,14.80
2016,09,17,16,59,14.80
2016,09,17,17,00,14.80
2016,09,17,17,01,14.80
2016,09,17,17,02,14.70
2016,09,17,17,03,14.60
2016,09,17,17,04,14.60
2016,09,17,17,05,14.60
2016,09,17,17,06,14.60
2016,09,17,17,07,14.60
2016,09,17,17,08,14.70
2016,09,17,17,09,14.70
2016,09,17,17,10,14.70
2016,09,17,17,11,14.70
2016,09,17,17,12,14.80
2016,09,17,17,13,14.80
2016,09,17,17,14,14.80
2016,09,17,17,15,14.90
2016,09,17,17,16,15.00
2016,09,17,17,17,15.00
2016,09,17,17,18,15.00
2016,09,17,17,19,15.00